230P/LINEAR (2015)

Japanese version
Home page
Updated on May 29, 2016

---------------------------------------------------------------------

* Profile

* Pictures

* Orbital Elements

Epoch 2015 June 27.0 TT = JDT 2457200.5
T 2015 Nov. 18.06524 TT                                 MPCW
q   1.4852895            (2000.0)            P               Q
n   0.15723009     Peri.  308.91309     +0.45667843     -0.85833737
a   3.3997392      Node   112.39649     +0.87428809     +0.38439781
e   0.5631166      Incl.   14.65306     +0.16451492     +0.33984598
P   6.27
From 404 observations 1997 Jan. 10-2015 Sept. 26, mean residual 0".5.

* Finding Charts

* Magnitudes Graph

        m1 = 13.0 + 5 log d + 15.0 log r(t - 35)

---------------------------------------------------------------------

The orbital elements are published on M.P.E.C. 2015-S97.
The charts are made with StellaNavigator Ver.8 (AstroArts).
The magnitudes graphs are made with Comet for Windows.

---------------------------------------------------------------------

Copyright(C) Seiichi Yoshida (comet@aerith.net). All rights reserved.